Buffalo, NY

10:48 AM EST on December 09, 2019 (GMT -0500)
Buffalo Niagara International

Weather History for KBUF - August, 2019

Change the Weather History Date:

Wednesday, August 7, 2019

  Actual Average Record
Temperature  
Mean Temperature 73 °F 71 °F  
Max Temperature 78 °F 79 °F 93 °F (1947)
Min Temperature 67 °F 62 °F 47 °F (1948)
Degree Days  
Heating Degree Days 0 0  
Month to date heating degree days 0 0  
Since 1 June heating degree days 62 73  
Since 1 July heating degree days 0 9  
Cooling Degree Days 8 6  
Month to date cooling degree days 56 42  
Year to date cooling degree days 424 368  
Since 1 June cooling degree days 416 342  
Growing Degree Days 22 (Base 50)    
Moisture  
Dew Point 65 °F    
Average Humidity 78    
Maximum Humidity 93    
Minimum Humidity 62    
Precipitation  
Precipitation 0.13 in 0.11 in 3.88 in (1963)
Month to date precipitation 0.14 0.77  
Year to date precipitation 24.89 22.67  
Snow  
Snow 0.00 in 0.00 in 0.00 in ()
Month to date snowfall 0.0 0.0  
Since 1 June snowfall 0.0 0.0  
Since 1 July snowfall 0.0 0.0  
Snow Depth 0.00 in    
Sea Level Pressure  
Sea Level Pressure 29.77 in    
Wind  
Wind Speed 8 mph (SW)    
Max Wind Speed 18 mph    
Max Gust Speed 27 mph    
Visibility 10 miles    
Events Rain    
T = Trace of Precipitation, MM = Missing Value Source: NWS Daily Summary

Daily Weather History Graph

Daily Weather History Graph

Search for Another Location

Airport or City:

Astronomy

Aug. 07, 2019 Rise Set
Actual Time 6:12 AM EDT 8:28 PM EDT
Civil Twilight 5:40 AM EDT 9:00 PM EDT
Nautical Twilight 5:01 AM EDT 9:38 PM EDT
Astronomical Twilight 4:18 AM EDT 10:21 PM EDT
Moon 1:53 PM EDT (8/7) 12:03 AM EDT (8/7)
Length of Visible Light 15h 19m
Length of Day
14h 16m
Waxing Crescent, 49% of the Moon is Illuminated
Aug 7
Waxing Crescent
Aug 7
First Quarter
Aug 15
Full
Aug 23
Last Quarter
Aug 30
New

Hourly Weather History & Observations

Time (EDT) Temp. Dew Point Humidity Pressure Visibility Wind Dir Wind Speed Gust Speed Precip Events Conditions
12:04 AM 69.1 °F 64.9 °F 87% 29.79 in 10.0 mi South 8.1 mph - N/A   Overcast
12:54 AM 69.1 °F 64.0 °F 84% 29.78 in 10.0 mi SSW 9.2 mph - 0.00 in Rain Light Rain
1:19 AM 69.1 °F 64.0 °F 84% 29.79 in 10.0 mi SSW 8.1 mph - 0.00 in Rain Light Rain
1:54 AM 68.0 °F 64.9 °F 90% 29.78 in 10.0 mi SSW 6.9 mph - 0.01 in Rain Light Rain
2:54 AM 68.0 °F 64.9 °F 90% 29.77 in 10.0 mi SSW 5.8 mph - 0.01 in Rain Light Rain
3:54 AM 68.0 °F 64.9 °F 90% 29.77 in 10.0 mi South 4.6 mph - 0.03 in Rain Light Rain
4:54 AM 66.9 °F 64.9 °F 93% 29.77 in 10.0 mi SSE 8.1 mph - 0.00 in Rain Light Rain
5:54 AM 66.9 °F 64.0 °F 90% 29.77 in 10.0 mi SSW 4.6 mph - 0.02 in Rain Light Rain
6:54 AM 68.0 °F 64.0 °F 87% 29.78 in 10.0 mi Calm Calm - 0.01 in   Mostly Cloudy
7:54 AM 68.0 °F 64.9 °F 90% 29.78 in 10.0 mi Calm Calm - 0.00 in Rain Light Rain
8:44 AM 69.1 °F 64.9 °F 87% 29.79 in 10.0 mi Calm Calm - 0.00 in   Mostly Cloudy
9:54 AM 72.0 °F 66.0 °F 81% 29.78 in 10.0 mi Calm Calm - N/A   Mostly Cloudy
10:54 AM 73.9 °F 63.0 °F 68% 29.78 in 10.0 mi NW 3.5 mph - N/A   Overcast
10:57 AM 73.9 °F 63.0 °F 68% 29.79 in 10.0 mi Calm Calm - N/A   Mostly Cloudy
11:54 AM 75.9 °F 64.0 °F 67% 29.77 in 10.0 mi South 8.1 mph - N/A   Mostly Cloudy
12:34 PM 73.9 °F 64.0 °F 71% 29.78 in 10.0 mi West 15.0 mph 19.6 mph 0.00 in   Mostly Cloudy
12:54 PM 73.9 °F 64.9 °F 73% 29.77 in 10.0 mi WSW 13.8 mph - 0.00 in Rain Light Rain
1:54 PM 71.1 °F 66.0 °F 84% 29.78 in 7.0 mi SW 6.9 mph - 0.03 in Rain Light Rain
2:54 PM 75.9 °F 66.0 °F 71% 29.76 in 10.0 mi West 9.2 mph - 0.01 in   Mostly Cloudy
3:54 PM 75.0 °F 66.0 °F 73% 29.75 in 10.0 mi West 9.2 mph - 0.01 in   Mostly Cloudy
4:54 PM 78.1 °F 64.9 °F 64% 29.75 in 10.0 mi SW 11.5 mph - N/A   Mostly Cloudy
5:54 PM 77.0 °F 66.0 °F 69% 29.74 in 10.0 mi WSW 13.8 mph - N/A   Mostly Cloudy
6:54 PM 77.0 °F 64.9 °F 66% 29.73 in 10.0 mi WSW 10.4 mph - N/A   Mostly Cloudy
7:54 PM 75.0 °F 64.9 °F 71% 29.74 in 10.0 mi WSW 10.4 mph - N/A   Mostly Cloudy
8:54 PM 73.0 °F 64.9 °F 76% 29.77 in 10.0 mi SW 10.4 mph - N/A   Mostly Cloudy
9:54 PM 73.0 °F 64.9 °F 76% 29.77 in 10.0 mi SW 11.5 mph - N/A   Mostly Cloudy
10:54 PM 73.0 °F 66.0 °F 79% 29.75 in 10.0 mi SW 11.5 mph - N/A   Mostly Cloudy
11:54 PM 72.0 °F 66.0 °F 81% 29.74 in 10.0 mi SSW 10.4 mph - N/A   Mostly Cloudy